Naxing 3A

operational
NORAD ID: 60013 Int'l Des: 2024-110 Owner: TSHUA Country: CN
LEOCIRCULARRETROGRADESSO

About Naxing 3A

Description loading...

Live Position

Loading 3D Globe...

Upcoming Passes

Altitude History

Altitude vs Time

uPlot chart will show altitude changes over time

Two-Line Element Set

1 60013U 24110B 25312.85038109 .00016490 00000-0 80638-3 0 9993
2 60013 97.5801 42.7633 0010573 299.3545 60.6632 15.18246541 78702
Epoch: Nov 8, 2025 • Age: 39 hours

Current Status

Altitude 518.7 km
Velocity 7.60 km/s
Sub-Earth Point -17.51°S, 3.54°E
Launch Date Jun 6, 2024
Age 1.4 years
Type other

Technical Details

Classification Payload
Mass 20.00 kg
Dry Mass 20.00 kg
Total Mass 20.00 kg
Length 0.40 m
Diameter 0.40 m
Span 0.40 m
Shape Box
Manufacturer TSHUA
Bus Type Naxing
Phase Status In Orbit
Owner/State TSHUA/CN

Large Constellations

Loading constellations...